Location: Oshawa
(43.9000°N, 78.8670°W)
Time: 06:31:29
(UTC-04:00)

CZ-4C R/B - Visible Passes

Search period start: 30 June 2016 00:00
Search period end: 10 July 2016 00:00
Orbit: 421 x 515 km, 97.5° (Epoch: 29 June)

Date Brightness Start Highest point End Pass type
(mag) Time Alt. Az. Time Alt. Az. Time Alt. Az.
30 Jun 4.8 01:19:37 23° W 01:19:37 23° W 01:22:02 10° NW visible
30 Jun 5.6 23:16:17 10° ENE 23:16:59 10° ENE 23:17:41 10° NE visible
01 Jul 3.5 00:49:56 54° WNW 00:49:56 54° WNW 00:53:07 10° NNW visible
02 Jul 3.4 00:20:14 55° ENE 00:20:14 55° ENE 00:23:44 10° N visible
02 Jul 4.6 23:50:33 24° E 23:50:56 24° ENE 23:53:56 10° NNE visible
03 Jul 5.0 01:24:34 21° W 01:24:34 21° W 01:26:52 10° NW visible
03 Jul 5.5 23:20:52 11° E 23:21:50 12° ENE 23:23:17 10° NE visible
04 Jul 3.7 00:54:53 47° WNW 00:54:53 47° WNW 00:58:02 10° NNW visible
05 Jul 3.3 00:25:12 63° ENE 00:25:12 63° ENE 00:28:42 10° N visible
05 Jul 4.5 23:55:31 27° ENE 23:55:47 28° ENE 23:58:58 10° N visible
06 Jul 5.2 01:29:32 19° WNW 01:29:32 19° WNW 01:31:39 10° NW visible
06 Jul 5.4 23:25:49 13° ENE 23:26:40 14° ENE 23:28:34 10° NNE visible
07 Jul 4.0 00:59:51 42° WNW 00:59:51 42° WNW 01:02:54 10° NNW visible
08 Jul 3.2 00:30:10 69° NE 00:30:10 69° NE 00:33:38 10° N visible
09 Jul 4.3 00:00:28 31° ENE 00:00:38 31° ENE 00:03:57 10° N visible
09 Jul 5.3 01:34:30 17° WNW 01:34:30 17° WNW 01:36:24 10° NW visible
09 Jul 5.3 23:30:47 15° ENE 23:31:28 15° ENE 23:33:43 10° NNE visible
